Wind_Gust
8 11 7 10 12 13 15 18 20 20 19 20 19 15 12 10 11 13 12 8 13 14 10 13 16 14 16 15 17 15 14 18 19 20 14 8 9 19 21 26 28 27 27 28 29 29 27 21 21 22 22 21 22 22 22 21 22 22 22 21 21 21 19 19 20 19 19 19 20 20 21 21 21 20 19 19 17 18 18 19 19 21 22 23 23 23 24 23 22 21 21 20 19 18 18 18 17
11 9 10 10 14 17 18 13 22 14 18 19 18 11 16 12 13 12 11 10 13 14 16 20 19 16 11 14 14 13 11 16 20 19 12 14 15 19 24 27 28 28 27 29 28 26 25 26 21 21 22 22 22 22 22 22 21 21 21 21 21 20 19 20 20 21 20 20 20 21 21 21 20 20 19 17 17 16 15 18 21 22 24 23 23 24 23 23 22 21 20 19 18 18 18 18 17
12 13 14 15 16 19 12 17 19 13 16 19 14 10 14 13 10 12 10 13 15 17 19 18 16 11 15 13 16 13 16 10 14 14 18 17 21 22 24 25 27 28 28 27 28 27 24 24 21 22 24 22 22 22 22 22 22 22 21 21 21 21 20 20 21 21 21 20 20 20 21 20 19 19 18 17 17 17 17 18 21 23 23 23 24 24 23 22 22 21 21 20 19 18 18 18 17
9 11 15 19 19 16 19 18 18 17 17 14 12 17 13 12 14 14 13 14 18 20 20 15 16 13 14 15 15 11 12 11 9 15 24 23 21 26 27 25 25 28 27 26 26 26 24 22 20 22 23 23 22 23 22 22 24 22 21 22 21 20 20 21 21 20 20 20 20 20 21 20 19 18 18 17 18 17 17 15 18 22 21 22 23 23 21 22 21 20 19 19 18 17 15 14 14
13 14 15 18 17 18 20 15 17 16 19 11 15 15 12 11 16 16 18 18 19 19 17 12 14 13 15 16 12 14 17 14 13 11 20 16 26 26 26 24 26 27 27 26 26 26 27 23 20 22 23 23 22 22 22 23 23 21 21 21 20 20 21 21 20 20 20 21 21 21 21 21 19 18 17 17 13 17 17 16 15 17 19 21 20 18 19 20 19 18 18 18 17 16 14 13 13
13 14 15 17 17 20 20 17 19 19 16 13 14 14 12 15 17 19 21 19 17 16 11 12 12 15 14 15 16 12 11 9 16 14 19 22 26 26 27 24 26 28 26 25 24 25 30 22 21 21 22 23 23 23 21 21 22 20 20 19 20 19 19 19 20 21 20 20 20 20 20 20 20 19 17 15 11 11 15 15 14 13 15 18 18 17 17 17 17 16 17 17 16 15 14 12 11
20 18 20 18 14 17 19 17 17 15 16 12 14 15 17 19 20 21 22 20 9 12 9 11 11 15 17 20 20 16 7 7 16 18 16 24 25 25 24 24 26 26 26 25 23 26 30 19 21 21 22 22 22 22 23 21 20 19 19 18 17 18 18 19 19 19 19 20 21 22 22 20 20 18 17 14 12 12 13 12 11 11 14 14 17 18 18 17 17 16 16 16 15 13 10 10 10
12 19 20 21 17 20 19 17 18 14 16 12 14 16 18 19 20 19 20 16 11 13 14 8 11 13 16 16 12 10 11 9 15 19 24 26 26 24 23 25 26 26 26 24 24 26 25 18 19 21 22 22 22 22 21 21 20 18 18 16 17 18 17 17 16 16 17 18 21 23 22 21 20 18 17 17 15 13 12 12 11 12 13 13 14 15 14 14 14 15 15 14 13 11 10 10 10
20 18 12 19 19 17 18 18 15 10 15 12 13 10 11 17 18 19 19 15 16 14 17 15 13 19 17 16 18 10 17 15 20 22 23 26 27 25 27 25 27 26 25 25 25 28 27 17 18 20 22 22 23 24 22 20 19 17 16 15 16 16 16 15 15 15 14 13 15 19 20 19 19 19 18 18 16 16 12 12 11 11 15 15 15 15 15 13 13 13 12 12 10 10 10 10 10
19 20 19 21 13 19 16 16 17 13 11 11 13 15 14 19 19 17 18 18 12 10 12 8 15 12 21 18 21 11 15 17 23 24 23 22 24 24 24 24 26 27 25 26 27 28 26 22 17 20 21 21 22 22 20 19 17 16 15 15 16 14 14 13 13 14 14 14 15 15 15 15 15 17 17 18 20 18 14 12 12 12 13 14 14 14 14 14 13 12 10 10 9 10 9 9 11
20 19 14 21 18 17 17 13 12 14 11 9 12 13 16 19 17 19 16 17 12 13 11 13 19 19 19 17 14 8 9 20 23 25 22 23 23 23 25 24 25 26 27 25 26 25 28 27 21 18 20 20 19 19 18 17 17 16 15 16 17 16 15 13 14 14 14 14 15 18 18 17 17 17 17 18 21 21 19 15 13 13 13 12 13 14 14 13 12 11 10 8 8 9 9 11 11
17 19 19 21 18 16 11 14 12 11 11 11 17 14 19 19 16 21 18 15 10 12 13 19 20 20 18 20 13 10 14 19 22 23 23 23 24 24 24 26 24 23 26 26 25 26 26 26 26 21 18 19 19 18 18 17 16 15 16 16 15 15 14 14 15 15 15 17 16 17 19 18 17 19 19 20 19 18 18 17 15 14 14 13 13 14 15 14 11 9 9 9 9 8 11 12 14
19 14 19 20 16 15 12 15 10 13 12 15 15 19 18 16 20 20 18 12 8 14 14 14 18 16 20 17 13 11 13 19 20 22 22 22 23 25 24 25 24 24 25 25 27 26 25 25 26 26 21 18 17 17 17 16 15 15 14 14 14 14 13 14 15 15 16 16 16 16 16 16 17 19 20 20 20 18 17 18 16 15 14 14 14 14 14 14 13 11 9 10 10 9 11 13 14
19 15 15 20 11 17 16 14 12 14 17 18 14 16 19 15 20 18 18 11 10 13 15 13 15 15 19 19 14 15 14 16 18 21 22 21 22 23 22 25 24 25 25 24 26 27 25 24 23 24 25 24 23 18 15 15 15 14 14 13 13 13 13 14 15 14 14 14 13 12 13 14 16 17 18 19 18 17 18 18 17 16 15 14 14 14 14 14 13 11 9 10 11 10 12 13 14
17 11 16 19 19 15 14 18 10 14 19 11 16 17 21 13 16 17 16 13 14 11 13 10 14 18 18 22 21 22 21 20 22 21 20 20 22 23 24 26 25 24 25 23 25 25 25 24 24 25 23 23 24 22 22 20 14 15 14 14 13 13 13 14 15 15 14 15 15 14 14 14 16 18 18 17 17 17 16 17 17 17 15 14 14 14 13 13 13 11 10 10 11 10 12 13 14
14 16 17 20 21 17 16 16 10 16 18 12 17 15 19 15 17 16 19 14 15 10 14 16 10 15 15 19 19 25 23 23 21 22 22 22 23 23 25 25 25 26 24 24 23 22 23 23 23 25 24 23 22 21 21 21 16 14 14 14 12 12 13 13 14 16 17 16 16 17 16 21 19 21 18 21 18 17 14 14 17 17 16 14 14 14 13 12 12 11 10 9 9 9 11 13 14
13 17 19 21 22 16 14 14 14 14 17 12 18 19 22 22 19 13 12 9 11 12 12 11 13 10 11 12 25 28 25 23 22 23 22 24 26 26 25 24 25 24 22 24 23 23 22 23 23 24 22 22 22 22 21 21 21 16 15 13 13 12 13 13 13 16 16 15 16 14 13 19 20 21 21 21 18 21 16 16 18 17 15 14 14 13 12 11 10 10 10 7 7 9 10 14 14
17 22 22 22 18 17 14 11 13 15 15 18 19 18 19 20 22 16 13 12 11 13 11 15 11 13 12 18 24 27 27 26 24 25 25 25 23 26 26 25 25 26 26 25 23 23 25 24 24 22 24 23 22 23 21 21 22 20 21 21 21 19 16 15 20 20 15 19 12 19 17 18 19 19 17 17 20 23 21 17 17 17 16 15 14 13 12 10 9 9 8 7 7 9 16 20 18
21 20 22 21 13 17 12 13 11 14 16 19 18 15 15 18 17 18 16 13 11 14 13 13 14 15 17 21 24 25 26 24 25 24 25 24 24 24 25 25 24 26 26 26 25 23 24 24 22 23 22 23 22 20 21 21 23 21 22 23 21 16 18 20 19 20 20 21 21 19 19 17 16 18 18 16 18 12 21 16 17 16 16 16 14 13 12 10 8 8 8 7 5 4 16 17 19
21 19 20 21 11 12 10 9 10 12 16 18 19 18 18 15 15 18 14 13 12 13 16 14 15 16 18 22 22 24 25 25 23 23 24 23 21 25 22 23 25 25 25 25 25 24 24 23 22 22 23 23 22 21 21 21 21 19 21 21 21 20 19 21 18 18 20 20 20 17 17 18 18 16 12 16 15 19 22 17 16 16 16 15 15 12 12 9 8 7 7 8 5 8 12 15 18
16 20 21 14 11 11 13 7 11 15 14 17 19 19 19 13 19 15 15 16 14 12 14 15 18 21 22 22 24 24 25 24 23 23 23 24 22 24 23 23 24 25 25 24 23 22 22 21 22 22 22 22 20 20 19 20 20 19 20 20 20 19 19 19 17 17 15 19 20 17 20 17 20 20 19 19 19 19 19 19 19 16 15 15 11 14 14 15 14 17 15 12 12 11 13 14 14
11 19 14 11 11 14 10 11 12 15 14 16 18 19 18 21 16 12 14 18 12 10 12 13 18 24 26 27 26 26 25 24 24 25 24 24 25 24 22 21 20 20 21 23 23 22 23 21 20 20 20 19 19 19 19 19 19 19 20 19 19 20 20 17 18 17 19 18 16 18 16 16 17 20 17 21 19 17 17 17 17 15 14 13 10 11 11 15 15 17 17 16 13 12 12 12 14
20 17 16 14 14 17 13 14 13 13 18 17 19 16 19 20 20 11 12 15 13 9 10 12 19 24 25 25 27 27 26 25 24 24 26 26 26 25 25 24 23 23 22 21 21 21 21 20 20 20 20 20 19 18 17 19 19 18 18 19 19 18 17 16 18 16 15 17 14 13 19 17 18 17 17 15 16 16 16 15 15 14 14 14 12 12 12 14 15 15 14 12 11 13 14 14 14
22 16 11 15 14 17 14 17 14 17 16 19 20 18 21 19 21 13 18 12 11 11 11 13 19 21 23 26 25 26 25 25 24 25 26 25 25 24 23 22 21 19 20 21 21 20 21 21 21 20 21 20 19 19 19 20 19 18 17 18 18 18 16 16 15 15 17 20 24 21 19 16 16 16 16 16 14 14 14 14 14 13 12 11 11 12 15 14 14 13 14 14 16 15 16 15 15
23 25 14 13 14 15 15 17 16 16 18 19 18 20 19 17 19 19 17 9 8 10 13 16 20 22 23 23 24 24 22 22 24 26 23 23 22 21 18 19 19 20 22 21 21 21 21 22 21 22 22 21 20 21 20 20 20 18 17 16 16 14 15 13 15 15 14 14 17 20 14 14 15 15 15 14 15 14 14 14 13 11 11 11 12 11 12 12 12 13 14 16 15 14 15 14 16
25 19 13 14 16 17 17 18 17 17 18 15 20 19 18 13 15 22 11 10 10 12 16 18 20 23 23 23 24 24 23 25 25 24 24 21 21 20 19 20 21 21 21 20 21 21 22 23 22 23 22 22 22 21 19 19 19 17 17 16 16 14 14 12 11 13 11 12 12 14 13 15 15 14 14 14 15 14 14 13 13 12 11 10 9 11 10 10 12 13 14 15 17 15 15 15 16
10 15 17 17 15 14 14 18 16 15 17 17 22 20 17 11 13 14 14 13 14 16 18 18 19 22 23 23 24 23 23 26 26 23 21 19 21 23 20 18 19 19 18 20 21 21 20 22 22 21 20 18 21 21 20 20 18 16 16 16 14 14 16 13 14 10 9 14 12 17 15 15 15 14 14 14 15 15 15 15 13 11 11 11 10 10 8 10 11 12 13 14 15 15 15 16 16
12 10 13 15 17 16 16 16 17 17 19 15 17 18 15 17 15 19 14 13 15 17 18 20 20 21 23 22 23 22 23 24 24 23 23 19 22 24 21 22 20 19 19 19 20 20 21 21 21 21 21 20 20 20 19 19 19 19 19 18 15 14 17 14 10 6 9 9 12 14 12 12 11 11 11 14 15 15 15 15 14 12 10 11 10 10 11 10 10 11 12 11 11 13 14 14 14
13 12 18 17 16 21 16 17 15 11 20 13 14 20 21 19 23 12 11 14 15 16 18 20 20 20 21 22 22 22 24 24 24 24 21 18 17 19 20 20 20 19 18 18 18 17 20 20 20 19 18 15 15 19 19 16 15 15 17 16 16 16 16 10 10 10 10 14 13 12 11 10 9 10 8 10 13 15 15 14 12 11 11 9 8 9 10 11 10 12 12 11 13 14 14 15 13
12 16 18 16 19 22 15 11 13 14 14 9 11 23 20 24 21 13 13 15 16 17 18 21 21 21 21 22 24 23 25 25 24 23 21 19 16 17 19 19 17 18 18 18 17 16 19 20 19 19 21 17 18 17 15 15 14 14 12 15 15 17 15 13 11 13 12 13 18 16 13 14 16 12 11 11 10 11 12 13 12 11 11 9 9 10 11 10 11 11 12 13 11 14 15 15 15
19 11 13 19 16 17 15 10 9 15 14 14 16 22 18 13 15 12 12 14 17 18 18 20 21 20 22 23 23 23 23 23 22 20 17 16 18 19 19 18 18 17 13 14 17 16 15 18 21 19 18 19 17 18 18 15 14 15 16 19 18 16 15 13 12 13 13 13 14 15 14 14 13 13 13 12 10 10 12 12 12 11 10 10 11 11 10 11 12 13 13 13 14 13 15 14 14
15 17 22 19 18 16 13 12 9 13 16 11 16 21 22 15 20 14 11 14 16 17 17 19 19 20 20 21 21 22 24 23 23 23 19 20 19 20 20 19 19 19 18 18 19 19 18 17 19 20 18 18 19 18 16 14 15 14 14 13 14 15 15 13 10 11 16 15 15 15 17 14 13 15 14 13 10 13 13 13 12 10 9 10 10 10 11 12 12 12 11 12 14 13 15 15 14
18 20 10 13 15 13 13 17 10 11 11 12 18 21 12 17 14 13 12 14 15 16 17 19 19 18 20 21 21 22 23 24 24 23 22 24 23 20 19 19 21 20 17 18 18 18 17 18 19 21 20 20 18 19 14 12 15 15 16 15 14 15 16 16 13 11 13 16 18 18 17 15 16 16 15 12 12 16 12 12 11 10 10 11 12 12 11 12 13 12 12 12 11 15 16 16 17
20 19 19 11 14 11 15 17 13 9 12 13 13 20 19 13 13 10 12 13 15 17 18 18 19 20 20 20 22 24 25 25 26 24 23 25 24 22 19 17 17 17 17 18 18 20 21 18 17 19 20 20 19 22 17 12 16 13 13 14 13 16 15 17 18 19 17 15 16 17 16 15 14 16 15 13 14 12 12 12 12 11 12 11 12 12 12 11 12 13 13 12 13 14 15 16 16
18 16 17 18 17 16 14 13 19 14 10 16 14 18 19 21 15 12 11 13 15 17 17 18 19 21 21 21 23 24 25 26 26 21 20 22 20 17 16 16 16 16 16 17 18 19 17 19 19 20 18 19 20 22 21 18 16 14 13 13 14 11 14 15 19 20 20 13 14 15 15 15 15 14 13 13 13 14 14 12 12 12 11 12 12 13 13 12 12 13 13 14 12 11 15 15 15
10 14 14 12 14 16 15 12 12 12 17 18 18 22 18 19 19 14 13 13 16 16 15 17 20 23 23 22 23 25 26 26 21 19 18 20 21 19 17 17 17 17 18 18 18 17 17 16 15 21 19 21 17 19 18 17 17 17 17 16 15 15 17 15 13 14 17 15 13 16 18 15 14 13 15 15 17 17 14 13 13 13 12 11 12 12 13 13 13 13 14 14 14 14 16 18 18
10 10 13 16 16 15 9 12 11 12 18 20 22 21 22 21 22 16 12 12 15 18 18 20 20 22 24 24 24 23 23 22 20 18 17 18 19 18 16 16 16 16 17 19 19 18 17 18 17 19 19 20 20 16 18 19 20 18 18 19 19 17 19 16 15 14 13 13 12 14 14 16 14 16 16 17 14 12 13 13 13 13 12 12 12 12 11 13 13 13 14 15 16 16 16 19 19
14 15 16 19 17 18 13 12 10 10 14 19 16 17 21 24 24 23 13 15 18 18 20 21 22 22 22 23 24 24 23 20 19 16 17 18 18 16 15 16 15 18 17 17 19 19 18 18 18 19 19 19 21 17 16 17 17 19 19 20 17 18 18 18 17 16 15 14 13 12 12 13 16 16 16 14 12 13 13 13 13 13 12 12 11 12 12 13 13 13 15 16 16 17 17 17 19
15 19 17 19 21 16 12 11 11 11 14 19 16 19 20 20 22 23 19 19 20 19 21 22 23 23 24 25 25 24 24 24 21 18 19 20 18 18 17 15 16 17 16 18 18 18 18 19 17 18 17 19 19 18 17 18 16 15 16 17 17 19 17 16 17 16 16 16 13 13 12 12 13 14 14 13 13 12 13 13 13 13 12 12 13 13 13 14 14 14 15 16 18 17 17 19 19
16 18 20 21 12 12 15 18 14 13 17 19 20 23 24 23 24 27 24 23 22 21 22 23 23 24 25 26 26 26 27 28 27 23 23 22 20 20 17 17 17 18 17 18 18 19 19 18 15 16 16 18 22 22 15 13 15 16 13 15 15 15 18 16 13 14 14 15 15 13 14 13 13 13 14 14 14 13 13 13 13 13 13 12 12 13 14 14 14 15 16 16 17 19 20 21 18
18 19 20 20 15 14 17 17 14 13 19 20 22 23 26 24 26 27 26 24 22 24 23 24 25 26 25 23 23 25 28 26 25 22 21 22 22 21 19 17 18 19 19 19 19 20 18 16 16 17 19 21 23 23 22 16 16 16 16 16 16 16 15 17 16 17 15 14 14 14 14 12 13 13 12 13 12 13 14 14 14 13 13 13 12 13 14 15 15 15 15 16 17 18 20 20 20
19 17 20 19 18 21 21 19 16 22 22 21 17 27 24 18 19 22 19 24 26 27 27 27 27 26 26 26 26 24 23 26 25 25 23 22 23 22 20 20 19 19 19 19 18 19 18 20 19 19 19 20 22 21 20 18 19 19 20 21 22 21 20 19 19 18 18 17 16 13 13 14 13 12 13 13 13 13 13 12 13 14 14 13 13 13 14 15 15 15 17 16 17 16 19 18 19
19 14 16 19 21 20 18 17 14 20 24 17 15 22 23 13 14 14 17 20 25 26 26 28 27 27 29 29 28 26 26 25 24 22 23 23 23 22 21 21 21 20 19 17 17 19 18 20 19 20 19 20 21 20 22 20 19 19 19 20 20 20 20 18 15 15 15 15 13 13 13 11 12 12 12 13 13 13 13 13 13 13 14 14 13 13 14 14 16 16 17 16 16 17 17 20 18
22 9 12 14 14 13 13 16 19 22 12 9 15 18 21 22 21 17 15 17 20 24 26 25 25 25 27 28 29 24 26 23 23 25 24 23 24 24 23 22 22 22 19 18 18 19 20 21 19 17 18 19 18 20 21 22 20 20 20 19 19 18 17 16 16 15 13 14 15 14 14 13 13 13 13 14 14 15 14 15 14 13 14 14 15 16 15 15 15 14 14 13 13 13 17 18 16
15 12 8 10 11 12 13 16 18 16 14 21 23 20 24 23 18 14 16 21 22 24 23 24 25 26 25 27 29 25 23 23 21 23 25 23 22 24 22 22 20 20 20 21 21 19 21 21 22 18 19 18 17 19 21 21 20 20 20 19 18 16 16 16 16 16 15 14 14 14 13 14 13 12 13 12 14 14 15 15 15 14 14 14 15 15 14 15 14 13 15 15 14 13 12 14 15
18 10 10 13 12 13 14 17 18 13 15 21 20 20 26 23 18 19 16 21 21 22 22 14 15 19 22 24 25 24 23 22 21 20 21 21 22 22 21 22 23 22 20 20 18 19 20 20 21 20 19 16 18 17 19 20 21 21 20 17 16 16 16 17 16 18 17 16 15 14 14 14 15 15 13 12 11 13 13 14 15 14 13 14 14 14 14 14 14 14 15 14 14 14 14 13 15
13 11 15 17 15 14 13 15 15 15 21 25 20 15 20 27 17 18 19 17 15 15 12 11 11 12 16 19 23 25 24 22 23 21 21 20 21 23 22 24 24 21 20 20 19 20 20 20 20 19 17 17 18 19 19 22 21 20 19 18 17 17 17 16 17 17 16 16 16 15 14 14 14 14 14 13 13 12 12 14 13 14 14 13 14 15 15 15 15 13 14 14 14 14 14 14 14
15 19 20 17 18 14 16 16 15 20 26 15 12 15 17 25 19 22 13 13 10 14 16 14 12 12 14 15 20 24 22 23 21 21 22 20 20 22 19 17 19 19 21 22 19 19 21 20 20 18 18 17 19 20 20 22 21 20 17 18 19 17 17 18 18 17 17 17 16 17 15 14 14 14 13 13 13 12 12 12 13 14 14 14 14 14 15 15 15 15 15 15 16 14 13 14 15
19 19 19 20 22 18 22 23 21 26 25 14 11 15 18 28 25 20 14 12 11 10 14 16 16 15 12 14 17 21 21 21 20 20 21 19 21 21 18 20 14 20 21 21 21 19 19 20 21 20 19 20 21 20 20 21 20 19 19 19 18 18 18 17 18 18 17 17 18 16 16 16 15 15 14 14 13 13 13 13 13 14 14 13 13 13 13 13 15 15 15 15 14 15 16 15 15
21 24 21 23 26 22 18 23 21 22 17 16 15 11 26 18 21 13 13 12 12 12 13 15 16 17 14 13 16 18 20 19 18 20 22 22 19 22 25 30 22 20 20 22 19 19 18 22 22 20 21 21 21 21 22 22 20 19 18 19 18 18 17 17 17 18 17 16 16 16 16 15 15 14 14 13 14 13 12 11 11 11 13 15 14 13 13 13 13 15 14 15 15 15 15 15 14
27 21 24 22 25 26 18 25 24 21 17 12 13 15 20 20 12 12 12 10 10 12 16 15 15 16 13 13 14 18 17 17 19 20 21 23 26 24 24 25 26 25 23 21 21 20 20 23 23 23 23 22 21 21 23 22 21 19 18 18 18 17 17 19 18 16 15 15 15 15 14 14 14 14 14 12 12 11 10 10 10 11 12 13 15 14 14 14 13 13 15 13 15 15 15 14 14
19 19 19 23 20 15 27 13 17 15 13 15 19 19 13 16 16 12 11 10 12 12 15 16 14 10 12 14 14 17 19 19 19 20 23 22 23 24 22 19 23 24 24 22 22 23 22 26 25 25 26 25 24 23 23 22 20 19 18 17 17 16 16 17 16 15 15 14 14 14 13 12 12 12 12 12 11 10 11 11 12 13 13 13 15 16 16 16 16 14 15 15 15 16 15 15 14
21 21 24 23 15 21 15 8 9 4 15 24 10 18 22 17 22 14 11 13 15 16 18 20 19 15 10 12 14 14 16 18 18 20 24 25 21 20 24 22 20 21 26 25 24 25 25 27 27 26 26 24 25 24 23 21 20 19 17 17 16 15 16 15 16 14 13 12 13 11 12 11 10 10 11 10 11 10 11 11 13 14 14 13 13 14 14 14 16 15 15 16 16 15 15 15 14
20 24 22 15 10 16 19 23 14 18 22 16 14 17 20 18 17 12 13 11 16 16 19 17 17 17 16 11 10 11 13 15 17 19 23 26 24 23 24 21 21 22 25 25 26 24 24 25 27 27 26 25 24 24 23 21 20 21 19 18 16 15 16 16 16 15 14 13 12 11 11 11 10 10 11 10 11 12 11 9 12 13 13 13 13 13 13 14 15 16 17 18 20 16 15 14 16
24 13 14 19 18 16 23 21 23 19 20 22 19 14 21 19 20 18 16 15 16 16 16 17 16 14 13 13 14 13 10 15 17 18 21 24 21 22 21 12 16 18 20 22 25 24 23 22 25 27 28 27 25 25 23 21 22 19 19 18 16 16 17 17 16 16 15 14 13 12 12 11 10 10 11 11 11 11 11 10 9 11 11 13 12 11 11 12 14 14 16 15 14 15 15 14 13
18 12 21 14 16 21 13 23 22 24 20 17 14 16 20 13 16 15 16 15 16 14 13 15 15 13 13 14 13 12 10 10 14 16 21 21 19 18 18 20 19 14 16 17 20 22 22 23 24 26 25 25 24 24 24 23 23 20 18 18 18 18 19 19 17 18 18 16 16 14 13 11 11 11 11 11 11 11 10 10 10 11 12 12 13 12 12 12 13 13 15 16 15 15 16 15 14
24 23 24 22 23 11 21 15 22 21 20 19 17 18 13 17 15 15 15 15 13 13 14 15 12 12 13 12 15 14 12 11 12 10 19 19 21 22 22 21 17 16 16 16 19 19 23 24 26 27 27 27 26 25 24 23 22 21 19 18 18 18 17 19 18 19 17 17 16 14 14 12 12 10 11 11 10 9 9 10 11 12 13 13 13 13 12 12 13 13 13 12 14 15 15 14 13
16 20 24 23 23 23 23 23 19 25 23 21 18 20 11 15 16 12 16 13 13 13 13 13 13 15 16 15 15 14 13 11 7 9 11 16 18 18 17 12 24 14 13 14 13 19 21 24 29 28 28 27 26 26 24 23 20 18 17 17 17 17 18 18 17 18 18 18 17 15 13 13 12 12 11 12 11 9 9 11 12 13 13 13 14 14 13 13 14 13 12 12 11 13 13 13 11
Wind_Speed
4 3 0 2 4 4 4 6 7 6 5 7 7 4 3 1 2 2 3 1 4 5 2 5 8 6 7 6 8 6 7 8 7 7 3 1 3 10 12 16 18 16 16 15 15 16 16 15 16 16 16 17 17 18 17 17 18 18 18 17 17 16 15 15 15 15 15 15 15 15 16 15 15 15 15 14 13 12 11 14 15 16 17 17 17 17 18 17 16 16 15 14 13 13 13 13 12
3 2 3 3 4 5 5 3 6 4 6 7 6 2 5 4 4 3 3 2 4 5 6 9 8 7 4 6 6 5 2 8 10 7 4 6 8 9 15 17 16 18 15 14 15 14 14 16 16 16 17 17 17 17 17 17 17 17 17 17 17 16 15 15 15 15 16 15 15 15 15 16 15 15 16 14 14 12 10 13 15 16 17 17 18 17 17 17 15 15 15 14 13 13 13 13 12
3 4 5 5 5 6 1 5 6 3 5 6 4 2 4 4 1 4 3 5 6 7 8 9 8 4 7 5 7 4 3 3 6 7 7 10 11 9 15 16 15 16 17 14 14 14 12 15 16 16 17 17 17 17 18 17 17 17 17 17 17 17 16 16 16 16 16 15 15 15 15 15 15 15 14 14 14 13 10 12 15 17 17 17 17 18 17 17 16 15 14 13 13 13 13 13 12
2 4 5 7 6 5 6 5 6 5 6 3 2 6 4 4 5 5 5 6 8 8 7 5 6 5 6 7 5 3 4 3 2 8 8 9 8 13 15 16 16 14 14 12 13 13 12 14 15 16 17 17 17 17 17 18 18 17 17 17 16 16 16 16 16 16 16 15 15 15 15 15 14 14 14 14 14 14 13 12 14 16 16 17 16 17 16 16 15 15 14 13 13 12 11 11 11
4 5 5 6 5 6 6 4 5 4 7 1 2 5 3 3 7 7 7 8 8 7 7 2 4 4 5 7 4 2 6 6 6 5 7 7 15 13 16 16 15 15 14 15 13 13 14 18 15 17 17 18 17 17 17 19 19 17 17 17 16 16 17 17 16 16 16 16 16 15 15 14 14 14 13 13 11 14 12 10 11 13 15 16 16 14 14 14 14 13 13 12 12 10 10 10 10
4 5 5 6 4 5 5 5 6 6 5 4 4 4 4 6 8 9 9 8 7 6 3 4 3 6 4 6 5 3 4 2 7 6 8 11 16 17 17 14 14 15 15 14 13 12 14 15 15 16 17 18 17 17 17 17 17 16 16 16 16 16 16 15 16 16 16 16 16 16 16 15 14 13 14 12 8 10 13 12 10 10 13 13 13 13 13 12 12 11 12 12 11 10 9 9 9
6 6 6 6 3 4 6 6 6 5 5 3 4 5 8 8 9 10 9 8 0 4 1 2 3 7 6 6 9 6 2 1 6 8 7 14 16 16 15 13 14 15 15 13 12 13 18 14 15 16 17 18 17 17 17 16 15 15 15 14 14 14 15 15 15 16 16 15 16 15 15 15 15 13 11 10 10 10 10 10 9 9 11 11 12 11 11 11 11 10 11 10 10 9 8 7 7
4 6 6 7 4 6 7 5 6 4 5 4 5 6 8 9 10 9 9 7 1 4 6 1 4 5 6 8 1 3 3 3 7 11 14 15 16 16 15 13 15 15 15 13 13 14 18 14 14 16 17 17 18 17 16 16 15 14 15 13 14 14 13 14 13 12 13 15 16 17 16 15 15 13 11 10 10 10 10 9 9 11 11 11 12 12 11 11 10 9 9 9 8 7 6 7 7
7 6 2 6 6 5 6 6 4 1 4 1 1 3 4 8 9 9 9 6 6 6 7 7 5 8 6 7 7 4 7 8 11 14 15 16 17 16 12 14 15 14 14 14 14 16 16 14 14 15 16 16 16 17 16 15 15 14 13 12 13 13 12 11 11 12 12 11 13 16 17 15 15 15 13 12 11 10 10 9 9 9 12 12 12 11 10 10 10 9 7 6 6 5 6 6 7
6 6 7 6 3 7 5 5 6 3 2 3 4 5 6 8 9 8 8 8 4 2 4 2 7 5 10 8 9 5 6 10 14 14 14 14 15 15 14 14 15 16 14 14 14 15 14 17 14 15 16 16 16 16 15 14 14 13 12 12 12 11 12 11 11 11 10 10 10 11 11 11 13 13 14 14 14 12 10 10 10 10 11 11 11 11 10 10 9 8 7 5 5 6 6 6 8
6 6 4 7 6 6 6 3 3 5 3 1 2 5 8 8 8 8 7 8 3 4 4 6 8 9 9 8 5 2 5 12 13 15 14 14 14 14 13 13 15 15 15 16 15 14 15 16 16 15 16 16 15 15 15 14 13 13 13 13 12 12 11 10 10 10 10 11 12 12 12 11 14 14 13 15 16 14 11 10 10 10 10 10 11 11 9 9 8 8 6 5 5 6 7 8 9
5 6 6 7 6 5 2 4 1 1 1 3 7 6 8 9 7 9 8 6 2 5 5 10 6 9 9 8 4 3 8 11 13 14 14 14 12 14 13 11 14 15 16 16 15 14 14 15 15 15 15 15 15 15 14 14 13 12 12 13 12 12 11 11 11 11 11 11 11 12 14 14 14 15 15 15 15 14 13 12 11 10 10 10 10 11 10 9 8 7 6 5 6 6 8 9 11
6 4 7 7 5 5 3 5 1 3 3 6 6 7 8 7 10 10 8 3 0 6 6 4 9 8 8 7 4 4 8 12 12 13 13 12 12 13 14 14 14 14 14 15 16 16 15 14 13 14 13 14 14 14 14 13 13 12 12 12 11 11 11 11 12 12 13 13 13 13 14 13 14 16 16 16 15 14 14 13 12 11 11 10 11 10 10 9 8 7 7 7 7 7 8 10 11
7 4 4 7 1 6 5 4 1 4 4 8 4 7 9 5 10 9 7 2 3 3 5 5 6 4 10 8 6 7 7 11 11 13 11 12 11 12 14 14 15 15 15 14 15 16 15 14 12 13 14 13 13 12 12 12 13 12 11 11 11 11 11 12 12 11 11 11 10 9 11 12 13 14 15 15 15 14 14 14 13 12 11 11 11 11 10 8 8 6 7 8 9 8 9 11 11
6 1 5 6 6 5 4 6 1 4 6 3 7 7 10 5 7 8 8 4 6 3 5 2 4 7 6 11 8 10 10 13 13 12 12 12 13 13 14 14 14 15 14 14 14 15 15 14 13 13 14 13 14 11 11 10 11 12 12 11 11 11 10 11 12 11 11 11 11 10 10 12 13 13 14 14 14 14 13 14 14 13 11 11 10 10 10 9 7 6 7 8 9 8 9 11 11
4 4 5 7 8 6 5 6 1 5 5 3 7 7 8 6 8 7 8 6 5 3 5 5 2 2 5 9 10 14 15 14 13 13 12 14 13 13 14 14 14 14 13 13 13 13 13 13 12 12 12 13 11 10 11 12 11 11 11 11 10 10 10 11 12 13 14 13 13 13 13 13 13 12 14 13 14 14 12 10 14 13 13 11 11 11 10 8 7 6 6 6 8 8 9 10 11
4 5 7 7 9 6 3 4 4 2 6 4 8 9 9 8 10 5 4 2 3 5 4 2 2 2 1 3 14 17 16 13 13 15 13 13 12 11 11 11 11 12 10 13 13 12 13 13 14 11 12 13 12 12 11 11 11 11 10 10 10 9 10 11 11 13 13 12 12 11 11 10 11 11 11 11 14 11 13 13 14 14 12 12 11 11 10 8 7 6 5 3 5 7 9 10 11
6 7 7 8 6 7 5 2 4 6 5 8 9 8 9 9 10 7 5 3 3 5 2 5 3 6 4 9 14 17 17 16 15 15 13 13 11 11 11 11 12 12 12 12 12 13 12 12 13 12 11 13 12 10 9 9 10 12 12 11 11 10 10 10 10 10 11 10 10 11 8 7 7 7 5 11 9 13 13 14 14 14 13 12 11 10 9 8 7 7 6 5 4 7 13 8 9
8 6 8 8 3 6 4 5 3 5 7 8 8 7 7 8 9 7 6 4 2 6 5 5 5 7 8 13 15 15 16 15 16 15 15 15 12 14 13 11 12 13 12 11 11 13 11 11 11 11 12 12 13 11 9 9 12 10 11 11 10 11 11 9 10 8 9 9 10 9 7 6 6 9 7 7 9 10 12 13 13 13 13 13 11 10 7 5 5 6 5 5 3 3 7 7 7
9 7 7 8 3 3 3 2 3 4 7 8 9 8 9 6 6 7 5 4 3 5 5 5 6 8 10 13 14 15 15 15 15 15 15 15 13 13 13 13 12 13 13 12 11 11 11 10 11 10 12 12 11 8 9 9 10 9 9 10 9 9 9 9 5 9 9 10 8 6 6 6 6 3 9 10 11 9 12 13 13 13 13 11 12 9 8 5 4 5 5 6 4 5 5 5 7
5 7 7 2 3 3 5 0 3 6 6 8 9 9 9 5 9 6 6 7 6 4 4 5 8 11 13 13 15 15 15 15 15 15 15 14 13 13 12 12 12 12 11 11 10 11 12 11 10 10 10 11 10 8 9 9 9 8 8 9 9 8 7 3 6 8 7 9 7 5 7 8 9 7 7 6 4 8 9 9 9 7 7 7 8 6 6 6 7 7 5 5 5 5 5 6 5
1 8 6 1 1 6 3 3 4 7 7 8 9 9 8 10 7 5 6 8 2 2 4 5 6 12 15 15 16 15 15 15 16 16 15 15 15 14 12 11 11 10 10 10 10 11 12 11 11 9 10 10 9 8 8 8 8 8 8 8 8 9 7 7 6 6 3 7 6 6 6 5 6 9 8 11 9 7 8 7 7 6 6 6 5 4 5 7 6 6 7 7 5 5 4 5 5
7 8 8 6 5 7 4 6 6 6 8 9 9 7 9 11 9 3 5 7 4 2 3 4 7 13 13 13 15 16 17 16 16 15 15 16 17 15 14 13 12 11 10 9 9 9 10 10 10 10 9 9 10 8 6 7 7 7 7 8 8 7 8 6 9 5 6 7 5 5 4 5 5 7 8 7 7 6 6 6 6 5 6 6 5 5 6 6 6 6 6 5 4 5 5 5 5
10 4 3 7 6 8 6 9 7 8 9 9 9 10 11 10 10 5 9 5 4 4 3 4 9 12 12 14 15 16 16 16 15 15 15 15 15 14 13 11 10 9 10 10 10 10 10 10 11 10 10 10 9 8 9 8 7 7 6 5 7 5 4 6 2 5 7 5 7 5 9 6 3 7 7 6 6 5 6 6 5 5 4 4 5 5 6 6 5 5 6 6 7 6 6 6 6
10 11 7 5 6 7 7 8 7 8 10 9 9 11 10 9 9 10 9 1 1 3 5 6 11 11 12 13 14 14 13 14 15 16 13 11 12 12 10 9 10 10 10 10 9 10 10 10 11 11 10 11 9 8 9 8 7 6 6 7 6 6 4 2 5 3 2 7 10 12 7 6 6 6 6 6 6 5 6 6 5 4 4 4 5 4 4 4 4 5 6 7 6 5 5 6 6
12 10 5 6 7 8 8 9 8 9 6 7 10 10 9 6 7 12 4 2 2 3 6 9 10 11 11 12 13 14 14 15 15 14 13 10 11 13 11 9 9 11 10 10 9 9 10 11 12 12 11 10 9 8 8 7 7 6 6 6 5 4 2 1 1 2 3 5 2 5 1 5 6 6 6 6 6 6 6 5 4 4 4 4 3 4 3 4 4 5 6 6 6 6 6 6 6
1 7 9 9 7 6 6 9 7 7 8 9 12 10 8 4 5 3 6 5 5 6 7 9 10 11 10 11 12 12 14 16 16 12 11 10 11 11 11 10 10 10 10 11 9 9 10 11 11 11 10 9 9 9 7 6 6 5 6 5 5 5 4 4 3 2 2 4 2 8 6 6 6 6 5 5 6 6 6 5 5 4 4 4 4 4 3 3 4 5 5 5 6 6 5 6 6
5 2 6 8 9 8 8 8 8 7 9 8 9 9 7 9 6 7 5 4 5 7 8 9 10 10 10 11 13 13 12 13 12 12 14 12 10 11 11 10 10 11 10 11 9 8 9 11 11 11 10 9 9 10 8 7 7 7 6 7 5 5 6 3 4 2 4 2 5 8 3 5 5 5 4 4 6 6 6 6 6 5 3 3 3 4 3 3 3 3 3 3 3 4 5 5 5
6 5 8 9 8 9 8 8 6 4 8 6 6 10 12 9 12 3 3 4 6 7 7 10 10 10 11 11 11 11 12 13 12 12 12 9 9 10 11 11 10 10 8 9 9 8 9 10 9 10 9 9 9 10 7 6 5 6 7 6 6 6 5 4 3 1 2 3 3 5 4 5 5 4 4 4 5 5 5 6 5 5 5 3 2 3 4 3 3 4 4 4 4 5 5 5 5
4 7 8 6 9 10 6 3 6 7 5 2 2 8 8 12 12 5 5 5 7 8 8 9 9 10 10 11 10 11 12 13 14 12 11 9 8 9 10 11 9 9 8 8 9 8 6 7 6 7 9 9 10 6 6 6 6 5 4 6 7 7 5 4 3 2 2 4 6 3 5 7 8 6 5 5 4 5 5 6 5 5 4 4 4 4 4 3 3 4 5 5 5 5 6 6 6
7 3 4 7 5 3 7 2 2 7 7 6 7 8 6 5 7 5 4 5 8 8 8 9 9 9 10 10 11 11 13 12 13 12 11 10 9 9 11 10 10 10 6 7 9 8 8 8 6 8 8 10 9 8 7 6 6 6 7 8 8 8 6 5 4 2 3 3 3 5 5 6 6 6 6 5 5 5 5 5 6 5 4 5 4 3 2 3 4 4 4 5 5 5 6 6 6
5 5 8 7 6 4 5 4 1 3 7 4 7 8 9 6 10 6 3 5 7 8 8 9 9 9 9 10 11 11 11 12 13 14 11 11 12 11 11 11 11 11 9 9 9 8 9 9 9 10 10 10 10 9 6 6 7 5 5 6 6 7 6 5 4 3 4 3 6 5 7 7 7 7 6 6 3 1 5 5 5 4 5 4 3 3 4 4 4 4 4 4 6 5 6 6 4
6 8 3 4 4 2 4 8 3 1 4 5 8 7 3 7 6 5 4 5 6 7 8 9 10 9 10 9 9 10 11 13 13 14 12 13 13 10 10 11 11 11 10 9 9 9 8 8 9 11 11 9 9 6 4 4 5 7 7 7 6 6 6 6 6 4 5 7 8 7 7 7 7 7 7 5 6 7 4 5 5 5 4 3 4 3 4 4 4 4 4 5 4 6 7 7 6
7 7 7 3 5 2 4 8 5 1 3 4 5 8 9 2 5 3 4 4 6 7 8 9 9 9 9 9 11 11 12 13 14 12 14 15 12 12 10 10 10 10 10 9 10 10 11 9 9 10 10 10 10 9 6 6 6 5 5 5 6 6 6 7 5 3 4 6 7 6 6 7 6 7 8 6 4 4 4 5 5 5 4 3 3 4 4 4 5 4 5 4 4 5 6 7 7
7 6 7 7 7 7 5 2 9 5 2 6 6 8 9 11 7 4 4 5 6 7 7 8 9 10 11 11 11 13 13 14 14 12 12 13 12 10 7 8 8 9 8 11 10 10 9 10 10 9 9 9 11 11 10 7 7 6 5 4 6 5 3 5 9 10 9 6 6 3 6 5 5 6 6 6 3 5 5 5 5 5 4 4 4 4 5 4 4 4 5 5 4 4 6 6 6
2 5 5 4 5 5 5 3 2 3 6 7 8 9 7 9 10 6 5 4 7 7 6 7 10 11 12 11 11 12 13 14 11 11 10 10 11 7 6 7 7 7 8 9 10 10 9 9 8 10 9 8 9 10 8 7 6 5 5 5 5 4 4 7 6 6 6 5 7 9 8 4 6 5 3 5 7 7 5 5 5 5 4 3 4 5 5 4 5 6 6 6 6 5 7 4 4
2 3 5 6 6 6 2 4 4 3 7 9 10 11 12 11 11 7 5 4 6 8 8 9 10 11 12 12 12 11 12 12 10 11 11 11 11 9 8 8 9 9 10 10 11 11 10 9 9 11 9 9 5 7 7 9 8 6 6 8 9 7 9 6 6 3 4 4 4 5 6 7 5 5 4 5 7 5 5 5 5 5 4 4 4 4 5 5 5 5 5 6 7 7 7 9 8
6 6 7 7 7 7 5 2 2 2 6 8 7 8 10 12 13 13 5 6 9 9 10 11 12 12 11 13 14 13 11 9 11 8 9 11 9 9 8 8 9 10 9 9 11 10 10 10 10 10 10 10 8 8 8 7 8 8 8 8 5 9 8 7 6 5 4 4 4 4 4 6 6 6 7 7 5 5 5 5 5 5 4 4 3 4 5 5 6 5 6 6 6 7 7 8 8
7 7 7 8 8 7 2 4 3 2 5 6 6 9 8 9 12 13 10 10 10 9 11 11 12 13 12 13 14 14 12 12 10 9 11 11 11 11 9 8 8 10 10 10 10 11 10 10 9 10 9 10 9 8 9 8 4 3 6 6 6 6 7 6 6 6 6 6 4 4 4 4 6 6 6 5 4 5 5 4 5 4 4 4 4 4 5 6 6 7 7 6 7 7 7 8 9
6 7 8 8 3 3 3 7 5 5 5 7 10 11 9 11 13 15 14 12 12 12 12 13 13 13 14 14 14 13 15 14 15 13 14 13 12 11 10 9 8 10 9 10 10 11 9 9 8 9 9 10 12 11 8 5 6 8 5 5 6 5 6 6 5 5 5 6 6 4 5 5 5 5 6 6 5 5 5 5 5 4 4 4 4 5 6 6 6 6 7 7 7 8 7 8 7
8 9 8 8 7 5 7 4 4 6 10 11 11 10 10 10 13 12 14 14 13 13 14 14 14 14 14 13 13 14 16 15 14 13 13 13 13 13 11 10 9 10 10 11 10 10 7 9 9 10 10 12 12 12 10 7 7 7 5 5 6 5 5 6 5 5 5 5 5 5 5 5 5 4 4 5 5 5 6 6 5 5 5 5 4 5 5 6 7 7 7 7 8 7 8 8 10
8 9 11 11 9 10 11 10 8 8 8 9 8 8 9 8 10 10 8 10 14 15 16 16 16 15 15 15 15 13 14 14 15 15 14 13 13 13 12 12 11 11 10 10 10 10 10 11 11 11 10 11 12 13 12 10 9 8 8 8 8 8 7 7 7 7 6 6 6 4 5 5 5 5 5 5 5 5 5 5 6 6 6 5 4 4 5 6 7 7 7 7 8 7 7 7 7
8 3 7 9 11 11 10 8 5 7 9 6 6 8 6 3 5 5 7 10 14 14 16 17 16 14 15 16 15 14 14 14 14 13 14 14 13 13 13 13 12 11 11 9 9 11 11 11 12 12 11 10 11 12 13 10 10 9 10 10 10 8 7 6 5 6 6 5 4 5 5 4 4 5 4 5 5 5 6 5 6 6 6 6 5 4 5 6 6 7 7 7 6 8 7 4 6
7 2 4 6 6 6 6 7 8 8 5 2 7 6 8 8 8 8 7 9 10 13 15 15 13 14 15 16 16 14 14 14 12 13 14 14 15 15 14 14 13 12 11 10 10 11 12 13 12 10 9 10 9 10 12 11 8 9 9 9 8 8 7 7 7 6 5 5 5 6 5 5 5 5 5 6 6 6 6 6 6 6 6 6 6 6 5 6 6 5 5 6 4 3 9 9 8
3 5 2 3 4 5 5 6 7 6 5 8 9 10 8 8 7 4 8 10 12 13 13 13 14 15 14 15 15 14 13 13 12 12 14 14 14 15 14 13 12 12 11 12 11 10 11 12 13 11 10 10 9 12 12 10 9 9 8 7 7 6 6 6 6 6 5 5 7 6 6 5 5 5 5 5 6 6 7 7 7 6 6 6 6 6 6 6 6 6 6 5 5 4 3 5 6
9 3 3 5 4 5 6 6 6 4 5 8 9 9 8 9 7 8 7 11 11 11 12 6 4 8 11 12 14 14 12 12 12 11 13 13 13 13 13 13 13 12 9 11 10 10 11 11 12 12 12 9 9 10 9 10 9 8 8 7 7 6 6 7 7 7 7 7 7 6 6 6 6 6 5 5 4 6 6 6 6 6 6 6 6 5 5 5 5 5 6 5 5 6 4 5 6
6 3 7 7 6 5 4 5 5 5 8 11 11 8 8 9 7 7 7 6 7 6 3 1 3 5 7 9 12 12 12 10 10 11 11 12 12 13 12 14 14 11 8 10 10 10 10 11 12 11 10 8 9 10 11 11 10 9 8 8 8 8 9 8 8 8 7 7 7 6 6 6 5 6 6 5 5 5 6 7 6 6 6 5 5 6 6 6 5 5 5 5 6 5 4 6 4
7 6 8 6 7 5 6 5 6 6 9 6 3 6 9 10 7 9 3 4 1 4 5 4 5 4 4 6 9 10 12 11 11 11 11 11 8 9 9 7 6 5 8 9 9 9 10 10 11 11 11 10 11 11 12 12 9 9 8 9 10 9 9 8 9 9 9 9 8 8 6 5 5 5 5 5 5 5 5 5 6 7 6 6 6 5 5 5 5 5 5 5 5 5 4 5 5
8 8 7 8 7 4 7 8 7 9 9 4 3 7 7 12 10 9 4 4 1 3 5 6 6 6 4 6 8 11 11 11 10 9 10 9 11 10 10 11 3 6 8 10 9 8 9 10 13 12 11 12 12 12 12 12 10 9 9 10 10 8 9 9 8 8 8 8 7 7 7 6 6 6 5 5 6 6 5 5 6 6 6 5 5 5 5 5 5 5 5 5 5 6 5 5 5
9 10 8 9 9 8 7 9 6 8 7 7 5 3 10 7 9 1 4 4 3 3 4 5 6 7 6 5 7 8 10 10 8 8 11 11 10 13 15 18 14 10 12 11 10 10 9 11 13 12 13 12 13 13 12 12 11 10 9 9 9 8 8 8 7 7 7 6 6 6 6 5 5 5 6 5 6 5 5 4 4 4 5 7 7 6 5 5 5 5 4 5 5 5 4 5 5
11 9 9 9 9 7 6 8 9 7 6 3 4 4 5 10 3 4 5 2 2 3 5 6 5 6 6 5 5 8 8 9 9 9 11 14 15 14 14 13 13 14 14 12 11 11 11 13 13 14 14 14 13 13 12 13 11 10 9 8 8 7 7 6 6 6 6 5 5 6 5 5 4 5 5 4 5 4 4 4 4 5 5 6 7 6 6 6 5 5 5 5 5 5 6 5 5
8 8 8 9 7 4 10 3 6 4 3 5 7 5 4 3 7 4 3 3 3 4 7 7 6 2 2 3 4 6 7 8 9 11 13 14 14 15 12 10 10 12 15 13 13 13 13 14 15 15 16 15 14 14 13 12 10 9 9 9 8 7 6 6 5 5 5 5 5 5 4 3 3 4 4 5 4 4 4 4 5 5 5 6 7 8 8 7 7 6 5 5 5 4 5 7 5
7 8 9 9 7 9 5 2 1 1 5 8 3 6 8 6 9 4 3 3 5 6 9 10 10 8 0 3 5 6 7 8 9 10 12 15 12 11 11 12 10 11 14 15 14 15 15 16 16 16 16 15 15 15 13 11 10 10 10 9 8 8 8 7 6 7 6 5 5 3 4 3 3 3 3 3 4 3 4 4 5 6 6 6 6 6 6 6 7 6 5 6 4 5 6 6 5
4 9 9 3 2 7 5 7 3 6 8 5 4 7 8 6 3 3 2 3 2 6 9 9 7 7 7 3 2 3 5 7 8 9 12 15 14 12 11 10 11 10 14 15 16 14 13 14 16 17 16 15 14 14 12 11 11 11 10 10 9 8 7 7 7 7 6 6 5 4 4 4 3 3 3 3 4 4 3 3 4 5 6 6 6 6 6 6 7 6 8 8 9 7 6 5 6
10 4 5 6 6 7 9 5 9 7 7 6 7 5 8 7 6 6 5 3 5 6 7 9 9 7 6 7 7 4 1 4 6 7 10 10 11 12 11 7 6 10 11 11 12 12 12 12 15 16 17 16 15 12 12 10 11 9 9 9 9 8 8 8 8 8 7 6 6 5 5 4 4 3 4 4 4 4 3 3 3 4 5 5 5 5 4 5 6 6 6 6 5 6 6 5 5
10 4 8 5 5 8 4 6 8 7 8 6 5 6 5 4 5 7 7 6 8 6 5 6 7 7 6 6 6 6 4 0 3 5 8 10 11 10 10 12 11 5 6 9 10 10 12 12 14 15 15 15 14 13 12 11 11 10 9 10 9 9 9 8 9 9 8 8 7 6 6 5 5 4 4 4 4 4 3 3 3 3 4 5 5 5 5 5 5 5 6 6 6 7 7 6 6
10 9 9 7 7 1 7 4 7 6 6 6 5 6 1 5 5 6 7 7 6 5 5 6 5 6 7 7 8 7 6 5 5 2 8 9 11 11 9 8 9 10 1 5 9 9 11 11 14 16 16 16 15 13 12 11 10 10 11 11 10 9 9 9 9 10 9 8 7 7 6 5 5 4 4 4 4 3 2 3 4 4 5 5 5 5 4 4 5 5 5 5 5 6 6 5 5
6 7 10 10 10 9 10 9 6 9 6 6 6 6 1 4 5 4 7 5 4 4 5 6 7 7 8 7 8 7 5 5 2 4 5 8 11 11 10 6 5 6 6 6 5 8 11 12 14 13 13 13 14 12 11 10 9 9 10 9 10 9 9 8 9 9 9 9 8 7 6 6 5 5 4 4 4 2 2 4 4 4 5 5 5 5 5 4 5 5 5 3 4 5 5 5 4
Wind_Direction
220 209 12 261 255 239 209 204 234 170 231 240 256 204 86 67 25 252 180 203 202 101 328 310 315 300 281 335 320 345 16 313 8 295 36 106 138 125 130 132 133 133 132 134 136 143 141 132 127 124 123 121 120 119 117 123 126 127 128 130 130 129 131 132 133 135 137 140 143 143 143 143 143 142 140 141 142 143 146 140 134 130 137 137 131 130 129 129 125 121 120 117 114 111 108 105 103
175 174 212 231 230 211 194 230 273 198 221 264 237 233 81 102 231 257 277 306 14 3 325 306 302 295 253 276 269 293 149 34 26 70 102 102 139 135 128 135 135 138 135 132 140 143 140 134 129 128 127 123 121 120 119 123 127 127 130 131 131 131 133 135 137 139 140 142 143 144 143 145 146 146 148 147 142 142 148 135 136 139 138 136 132 133 134 133 130 126 124 121 118 112 110 109 109
168 204 175 209 209 246 71 217 248 224 250 252 115 61 79 224 252 79 46 345 332 325 314 296 297 260 213 213 223 244 90 51 73 81 105 141 136 142 141 135 134 136 135 136 139 139 138 135 131 130 129 126 124 123 122 123 126 128 131 132 135 136 139 143 141 141 141 142 143 146 147 146 145 145 142 137 132 132 136 141 144 141 138 136 139 138 139 138 135 135 131 129 122 119 112 105 107
240 242 215 189 177 239 204 210 257 260 254 305 321 90 81 30 52 350 345 330 309 309 304 293 293 73 282 199 43 245 93 73 60 122 126 167 138 142 137 134 136 135 136 137 138 138 136 137 135 132 130 127 127 125 125 129 130 130 133 136 138 140 141 144 143 143 143 145 147 147 147 145 145 142 140 138 139 143 145 151 144 143 141 143 143 141 140 139 138 137 136 132 131 128 115 104 103
222 187 251 223 252 198 226 230 269 257 251 243 50 110 63 14 340 339 324 322 302 299 283 301 228 84 72 32 359 282 69 97 117 124 117 125 126 135 136 140 142 141 140 141 138 134 134 140 138 133 131 131 129 130 132 134 134 133 137 139 140 141 144 146 145 146 150 152 150 148 148 147 145 142 143 147 148 147 146 145 144 142 140 143 144 141 138 139 135 136 134 132 134 131 122 116 112
208 195 205 254 257 6 260 221 217 231 272 353 287 50 28 17 341 329 316 309 310 279 276 264 281 169 146 40 17 50 17 227 124 123 138 131 134 138 141 148 148 145 139 141 136 135 139 140 141 136 133 132 135 135 136 135 135 136 138 138 141 142 144 146 149 152 155 155 152 151 152 148 143 143 146 143 121 137 147 142 148 143 135 140 140 137 138 136 134 135 134 136 132 132 129 120 116
166 188 180 219 219 226 251 250 256 252 90 356 310 333 4 355 344 319 313 315 40 272 235 217 169 132 135 127 103 41 138 325 153 137 145 132 134 142 146 152 148 138 141 139 139 133 140 142 141 137 134 134 135 135 137 137 136 136 137 139 138 143 145 149 151 155 156 154 150 150 149 148 144 141 142 132 116 113 122 132 142 119 126 135 133 128 136 133 131 132 137 132 133 127 117 124 127
265 237 171 213 178 217 228 249 264 266 85 349 7 329 354 342 331 325 319 307 6 286 149 202 201 253 70 195 67 51 104 111 122 134 129 139 140 147 154 152 147 144 142 139 137 136 136 144 141 136 135 135 138 138 137 139 137 137 137 136 138 143 148 152 153 153 153 152 153 151 152 152 143 141 141 131 122 111 102 94 93 123 127 125 128 133 132 128 131 128 126 132 134 136 136 135 140
184 247 131 253 230 205 250 245 273 126 296 276 18 19 321 335 329 322 309 307 284 249 252 231 196 219 132 130 87 80 92 115 121 129 135 141 145 152 156 152 148 143 137 136 134 138 146 141 140 136 136 137 140 141 140 140 140 137 136 137 141 143 150 153 150 149 148 152 153 155 155 152 147 148 145 136 129 124 112 101 94 107 118 123 126 128 126 131 125 115 120 124 138 139 133 137 138
185 245 177 248 274 236 238 228 235 90 60 64 344 11 356 343 332 321 321 294 304 272 224 258 177 214 132 117 124 109 99 118 131 135 139 143 146 151 152 153 145 141 138 136 140 144 143 144 139 137 139 141 142 144 143 141 140 138 135 133 138 145 150 150 146 143 145 146 145 148 149 152 149 146 146 138 138 131 120 110 102 100 118 124 123 127 129 130 120 120 135 138 133 124 122 124 135
189 210 291 239 219 252 237 236 193 149 165 100 83 61 358 336 331 326 323 312 291 245 177 190 181 154 140 93 75 90 150 140 144 138 144 146 151 149 147 151 146 144 137 142 144 143 143 147 142 142 142 144 144 143 143 143 141 139 135 138 141 144 143 134 134 141 142 142 146 146 147 152 145 148 148 139 137 136 126 118 112 107 109 125 128 128 129 132 130 135 126 118 114 116 116 117 124
220 209 189 234 243 251 269 297 18 38 188 159 112 19 4 339 331 344 347 314 47 192 187 194 148 141 125 132 134 165 166 151 149 142 147 148 151 148 144 151 150 147 141 141 143 144 145 145 150 149 148 145 145 143 142 142 139 135 136 142 147 146 142 135 136 135 135 138 148 154 150 150 136 141 140 137 134 133 134 128 122 124 128 131 136 134 139 134 130 120 116 117 115 115 119 120 120
258 201 212 250 255 244 320 267 195 7 210 114 55 16 338 346 360 343 342 314 336 162 163 185 118 168 141 141 127 147 162 152 150 148 145 148 145 146 147 149 148 143 143 145 146 146 147 151 152 156 151 146 143 142 141 141 134 133 139 142 146 145 143 140 138 141 145 148 149 155 141 131 134 142 143 139 136 134 134 130 132 134 138 140 140 138 136 134 124 123 126 120 121 122 121 123 125
251 225 254 248 260 266 264 287 276 238 142 101 56 356 348 341 359 343 325 280 120 136 75 100 172 115 108 113 157 172 153 149 147 148 145 143 144 146 148 151 151 149 151 150 148 151 154 154 153 155 153 152 145 142 139 138 136 135 139 144 145 147 143 143 142 140 139 133 136 129 125 132 138 142 140 138 137 136 134 132 135 137 139 141 139 136 131 129 124 129 122 116 121 132 127 127 124
250 238 257 268 263 244 228 248 349 218 98 104 45 353 334 42 353 345 5 302 94 21 136 182 65 202 170 175 172 177 159 161 149 146 145 147 148 144 150 152 153 158 157 155 153 156 156 155 157 154 162 156 153 155 155 141 136 140 144 146 148 145 144 144 144 141 135 137 137 137 134 132 138 142 139 135 134 136 135 135 135 137 135 135 131 128 128 127 135 127 113 111 121 131 129 126 123
259 229 244 249 242 245 155 233 200 250 91 27 27 3 341 11 25 1 14 333 68 109 206 128 241 322 100 214 147 158 155 159 147 144 148 147 146 148 150 155 158 162 160 161 159 160 157 160 160 160 163 158 156 153 153 154 145 146 149 149 145 148 148 147 149 148 148 146 147 148 147 150 148 148 148 139 136 129 125 134 128 129 131 132 128 127 127 130 138 118 108 107 114 126 131 127 118
242 256 234 233 248 220 130 231 194 188 54 33 4 4 346 347 18 55 340 337 175 116 126 61 87 292 160 86 130 146 152 153 145 146 149 148 150 153 153 157 164 161 165 169 164 163 161 162 164 164 164 159 155 150 152 155 150 148 149 141 146 148 148 150 147 154 155 154 156 151 158 159 153 150 151 138 135 126 120 127 125 125 125 129 127 125 126 133 127 124 110 84 113 123 131 124 118
205 217 233 234 246 233 66 316 3 14 311 0 349 356 342 339 359 36 278 96 116 155 121 113 112 60 77 110 133 144 150 155 155 154 156 153 159 153 158 161 166 166 172 173 174 168 167 168 168 165 163 164 160 153 152 154 153 164 163 161 164 159 155 151 160 167 170 162 165 157 165 157 151 119 124 138 131 127 133 128 124 121 123 126 125 130 129 129 122 117 111 97 111 133 144 149 137
215 222 236 248 237 49 25 46 20 334 2 334 330 340 338 341 333 11 315 102 174 161 137 126 112 98 109 123 137 149 153 154 157 161 161 161 164 160 162 164 173 170 174 176 174 176 172 170 166 168 163 165 160 152 152 154 159 170 164 167 163 169 158 160 164 170 170 163 169 158 151 156 125 134 183 143 122 131 124 122 117 120 122 121 127 126 122 114 116 111 105 108 104 227 188 155 156
226 257 234 241 58 48 45 39 12 327 336 323 326 328 323 340 327 338 301 342 172 195 150 163 165 144 145 139 152 153 158 159 161 165 167 168 163 162 167 170 174 177 176 180 174 180 178 171 169 167 168 165 162 155 156 158 165 170 170 165 164 163 162 167 186 196 169 171 149 151 151 131 128 162 107 113 126 131 123 119 117 118 119 122 126 134 126 125 121 112 114 139 177 194 159 161 164
177 235 243 335 75 252 120 267 346 321 318 318 313 318 295 3 332 311 347 288 172 146 183 189 173 160 156 160 159 160 160 161 164 170 174 170 168 174 170 179 178 178 178 177 177 179 182 174 168 168 168 166 164 158 159 162 163 176 168 168 169 158 170 202 174 209 173 160 134 137 158 158 153 136 139 137 175 147 141 139 138 136 140 134 159 147 157 157 190 160 158 198 179 189 177 164 161
297 235 258 334 112 251 100 308 326 313 312 294 302 304 332 323 292 309 320 313 116 183 149 208 181 167 162 169 167 164 164 168 172 177 180 171 174 178 173 180 180 180 178 180 180 177 181 179 173 169 166 168 166 164 169 157 172 174 171 172 172 164 160 194 177 203 246 151 161 156 157 170 143 137 165 168 172 137 144 147 136 136 138 136 158 149 162 181 192 175 177 178 176 197 175 162 162
234 209 230 232 273 283 312 296 302 303 300 300 300 330 320 303 306 335 320 303 355 336 318 237 177 169 167 173 170 170 169 173 178 178 178 182 183 181 178 182 179 181 180 185 176 176 178 173 167 165 161 169 171 170 168 166 183 174 171 173 177 180 168 186 173 193 188 88 94 152 172 163 174 150 150 131 130 141 135 139 129 131 142 143 154 161 173 184 193 186 178 172 178 202 179 163 169
242 246 135 240 246 256 274 281 290 286 293 295 302 312 294 300 298 359 298 308 298 276 255 218 155 164 166 172 183 176 175 176 178 183 187 185 188 181 179 182 180 182 183 182 180 177 172 170 166 173 172 171 173 173 180 178 180 176 168 154 205 143 173 176 144 192 150 145 163 179 179 174 188 139 135 134 134 138 131 118 121 131 130 138 156 171 171 180 181 171 156 172 189 192 170 178 165
223 243 232 249 249 261 268 274 280 291 284 286 293 289 288 291 310 318 297 347 290 217 214 175 152 161 169 178 183 171 173 177 184 189 192 185 181 183 171 185 182 188 188 181 178 174 168 168 169 172 168 173 169 176 184 184 174 178 166 172 183 127 178 203 173 169 186 160 172 169 157 144 166 145 139 139 132 120 119 121 129 126 129 157 167 168 160 150 159 165 165 181 192 175 169 174 164
224 241 240 255 251 258 269 276 274 272 281 284 284 280 280 295 337 276 280 132 155 183 172 160 158 164 173 181 184 174 178 182 188 192 195 186 184 183 172 189 186 195 185 179 174 177 169 169 171 173 171 173 170 181 188 185 178 176 168 169 118 123 137 206 8 122 160 139 145 30 68 129 132 130 137 134 125 123 123 123 129 141 150 163 158 151 147 158 156 163 181 185 172 179 171 162 163
111 230 250 265 272 272 265 269 276 282 277 274 274 280 281 297 297 214 106 128 165 165 159 160 171 167 174 178 183 183 188 192 192 186 188 188 185 176 180 189 194 198 189 187 183 183 171 172 172 165 164 164 173 188 183 183 168 169 163 128 130 152 146 88 109 90 122 105 182 141 239 149 139 129 132 129 127 131 132 139 144 151 159 158 150 138 146 166 174 166 179 181 170 178 160 153 167
231 283 259 249 251 255 258 257 261 262 258 253 257 270 283 268 253 264 114 147 178 175 162 167 176 170 172 182 185 180 195 199 192 182 187 186 185 188 181 193 192 193 194 192 192 183 176 175 159 157 162 165 179 189 183 184 171 170 154 156 156 127 105 150 138 124 148 148 171 148 169 66 77 96 106 126 133 139 150 151 151 156 150 165 155 138 152 168 171 147 149 166 169 149 149 158 151
245 246 256 244 240 247 231 242 262 249 263 246 266 274 253 228 239 189 138 167 189 188 176 174 175 172 172 184 185 179 202 196 192 191 184 183 185 195 184 197 193 195 195 195 195 182 181 166 156 154 151 166 187 181 170 172 164 158 166 149 132 131 141 129 132 174 88 185 122 103 117 105 91 95 122 135 144 152 149 147 151 158 155 158 150 149 149 162 154 149 150 160 163 158 158 145 158
249 235 257 266 239 241 196 223 252 247 253 291 227 250 229 204 215 130 146 185 190 196 193 182 182 173 176 183 188 187 197 197 197 194 184 179 191 191 192 193 195 198 196 193 196 180 174 156 154 135 141 166 179 161 151 148 151 143 159 148 143 143 136 141 170 141 209 162 150 152 133 129 128 130 132 140 153 148 155 156 157 157 151 166 169 170 169 152 148 156 154 166 150 162 156 154 160
236 194 224 256 251 194 120 221 117 250 108 217 216 253 242 153 168 107 149 198 202 203 197 190 188 178 178 186 190 195 196 194 200 192 185 171 183 193 196 185 193 200 193 202 191 180 175 163 151 153 149 161 169 158 157 156 132 155 172 163 156 154 150 156 144 160 195 198 116 152 137 135 134 135 138 145 154 164 169 162 160 150 165 181 185 167 156 156 167 169 173 154 158 158 156 160 167
226 227 222 209 240 139 139 135 171 313 117 186 218 244 251 212 104 98 130 182 213 216 197 196 195 189 188 183 193 195 197 195 199 197 187 183 189 191 191 188 193 194 188 195 184 172 167 179 170 153 156 169 188 170 160 154 152 163 162 158 154 152 150 157 150 183 183 221 174 151 138 134 148 154 146 133 121 12 205 164 151 158 178 194 181 160 170 175 157 174 163 159 164 159 153 157 146
208 240 257 182 210 149 224 167 173 252 279 161 242 273 224 221 95 103 141 182 201 222 207 199 205 199 194 193 192 199 197 197 200 200 189 190 198 190 186 187 191 197 185 191 192 179 153 154 163 156 161 155 160 130 131 151 126 159 174 165 151 157 164 172 182 169 179 192 184 172 142 140 153 161 152 156 136 193 197 160 150 161 182 189 176 175 182 172 161 168 165 167 178 157 154 148 143
203 207 243 243 239 152 225 128 186 176 278 226 172 251 253 318 145 125 155 204 207 219 221 212 201 206 206 199 199 206 203 202 203 195 201 204 203 198 190 189 193 194 171 178 185 199 178 158 159 145 146 162 157 137 153 178 163 176 169 167 160 180 185 170 158 189 177 219 163 148 145 143 159 163 155 146 159 196 176 158 157 161 177 180 180 178 183 170 164 170 157 164 164 169 148 152 149
208 190 223 215 217 241 287 219 104 261 214 257 248 249 261 264 255 190 187 211 229 230 227 219 208 207 205 208 206 207 208 206 206 202 199 206 208 196 181 173 190 187 178 177 178 189 200 165 142 119 127 160 160 139 175 180 176 167 166 181 176 182 223 190 173 185 181 204 135 133 134 143 154 159 147 128 132 198 175 161 153 165 182 174 175 188 171 170 156 167 162 153 155 169 153 137 152
272 225 243 272 246 178 216 188 329 319 282 266 251 257 247 246 250 195 191 202 234 240 226 227 218 211 209 208 211 210 213 211 204 185 184 197 205 182 188 181 181 186 191 186 177 174 175 179 163 131 143 167 158 144 154 175 186 154 172 181 179 178 228 214 189 155 151 197 162 166 153 185 147 147 141 117 185 204 160 159 152 172 185 178 184 188 174 164 167 161 165 152 152 140 125 141 184
4 259 259 249 255 252 162 243 261 282 286 257 258 254 257 261 260 247 168 190 233 240 233 228 222 220 214 211 215 215 216 212 189 164 168 197 192 183 188 181 181 183 191 188 181 170 169 165 171 143 140 147 127 154 166 175 168 175 210 195 189 171 206 181 183 153 168 146 160 150 145 148 154 152 138 188 195 160 159 151 159 176 184 189 182 182 177 157 163 167 154 160 157 155 148 167 173
259 266 260 254 243 259 128 232 253 244 270 272 265 267 260 256 258 256 202 224 234 235 235 234 231 224 221 218 214 213 211 207 207 187 177 199 188 180 174 177 177 186 188 182 182 179 172 166 175 147 142 137 137 177 180 188 187 190 184 194 190 177 174 180 175 159 170 147 157 143 142 150 173 175 189 188 164 168 150 158 166 172 189 181 176 166 166 157 156 165 165 163 173 161 161 159 148
241 254 256 259 256 275 270 251 189 194 222 267 276 273 270 263 260 255 234 231 240 239 242 241 237 228 224 221 217 213 206 203 184 173 182 182 180 173 174 174 179 193 178 181 179 176 172 178 180 157 143 137 143 182 183 189 199 251 205 159 210 181 170 177 170 164 166 155 151 150 158 173 170 172 174 168 168 166 161 169 172 170 193 171 169 165 166 163 172 171 179 171 170 167 161 159 159
241 230 237 244 285 295 208 149 184 192 265 298 297 289 282 274 260 254 248 239 239 239 239 239 236 234 229 222 215 209 207 201 188 186 181 174 173 171 170 170 179 191 188 188 176 176 180 183 172 146 146 133 158 167 179 172 194 209 202 168 188 182 165 164 157 152 168 158 157 160 163 179 175 175 172 172 181 168 169 179 171 181 186 178 178 177 172 174 172 178 183 177 174 167 168 161 187
222 243 256 261 253 236 268 294 276 291 267 254 269 268 261 252 246 236 230 225 235 238 240 241 236 233 233 233 225 214 210 197 188 185 186 183 177 172 170 172 177 192 191 189 181 181 170 170 160 153 150 151 163 162 182 198 189 182 170 167 180 165 152 161 163 161 171 171 160 173 167 174 173 172 184 193 187 166 176 178 179 182 186 186 191 190 181 176 178 186 180 180 181 176 173 163 187
246 221 242 262 278 277 268 261 269 268 267 213 221 268 259 233 241 242 216 186 219 227 231 229 229 229 222 227 225 218 214 203 189 189 191 185 185 173 169 170 178 188 191 190 181 179 169 161 158 159 153 158 164 169 169 185 179 180 168 170 176 175 171 172 177 170 176 178 179 161 166 173 179 177 188 192 171 169 166 174 189 185 181 184 195 197 191 179 188 191 181 184 192 189 178 164 170
254 228 194 241 252 261 268 261 238 252 259 121 199 258 269 176 230 198 209 209 216 215 220 226 226 223 222 220 220 210 204 198 186 185 186 180 180 180 172 173 176 183 189 178 177 178 168 152 153 156 156 158 162 168 174 191 178 184 178 179 177 177 174 171 169 168 173 165 153 167 162 170 177 172 179 176 172 175 170 174 181 190 176 186 187 206 199 191 191 197 177 193 188 193 117 147 185
245 81 236 254 253 247 251 253 237 263 323 189 223 250 270 264 253 198 187 220 228 220 217 224 228 229 228 223 219 209 199 196 185 181 189 184 183 184 178 175 178 182 181 170 179 179 169 153 151 154 154 162 163 163 177 187 179 178 184 184 180 182 173 162 160 157 152 149 157 163 162 167 172 179 184 182 175 173 171 166 177 181 181 186 187 201 197 194 197 194 173 200 182 208 161 175 184
265 77 235 230 269 273 259 238 234 248 283 256 209 211 244 246 251 178 207 233 227 231 228 220 225 236 234 230 222 211 198 191 195 186 193 184 180 187 179 172 173 180 174 176 174 176 171 157 152 148 150 155 156 161 177 186 188 182 182 186 178 173 161 154 147 146 155 160 157 161 172 167 172 179 189 185 178 177 170 167 173 172 186 177 195 196 196 192 197 180 172 182 186 178 117 175 166
242 205 252 283 269 269 262 240 240 213 236 247 237 197 250 251 240 209 198 244 244 234 233 239 262 237 241 233 222 210 200 198 189 194 193 185 187 182 173 173 171 181 173 170 172 169 168 161 153 153 154 156 157 162 178 182 186 179 185 185 174 163 161 155 160 158 161 166 165 166 168 173 172 172 180 183 178 179 167 159 172 174 176 175 195 187 185 188 187 178 174 180 181 185 148 169 193
34 215 237 217 221 224 210 246 252 232 235 242 243 203 238 267 250 249 218 225 247 251 215 139 245 262 248 232 221 199 198 187 184 185 178 180 187 182 173 180 174 168 176 171 171 175 163 154 158 172 163 154 157 164 174 177 181 184 184 176 176 164 162 162 160 163 158 162 161 164 176 170 169 165 166 165 174 170 165 166 166 172 174 173 196 177 192 187 175 175 168 167 183 191 172 178 197
216 227 231 226 208 200 220 201 213 238 247 241 228 205 217 253 239 244 245 92 280 312 294 298 312 306 265 233 220 203 196 180 178 184 174 170 169 157 149 88 20 171 171 180 178 169 165 159 159 162 162 157 160 167 180 179 176 182 182 182 179 173 167 169 167 164 166 168 166 169 169 167 163 161 163 158 162 163 164 169 166 168 171 180 189 192 188 187 184 179 174 177 182 195 196 190 204
214 225 228 231 219 191 221 204 205 222 250 118 199 202 224 237 262 283 165 193 354 327 321 318 308 301 297 241 205 197 185 177 174 174 174 158 158 147 97 90 221 221 205 192 180 171 163 157 159 161 158 159 163 171 182 177 178 180 184 181 179 174 176 176 171 168 171 166 167 168 163 164 157 159 161 158 153 162 167 164 172 176 165 175 188 191 193 190 186 193 176 187 181 193 197 199 204
209 217 214 224 230 217 231 231 231 243 212 126 204 189 263 280 251 93 329 31 22 358 323 321 307 290 283 262 205 183 179 174 163 168 161 154 139 130 142 161 185 187 211 192 175 173 166 160 161 164 162 163 166 173 179 179 181 180 180 180 177 176 182 179 172 171 167 164 161 160 164 158 159 156 156 160 152 165 169 159 167 175 171 166 180 183 184 183 186 194 179 196 190 195 204 204 213
210 219 228 233 244 247 241 241 243 241 264 140 159 215 250 253 52 67 72 64 30 28 358 342 325 295 264 263 197 177 185 180 162 171 169 157 148 159 167 174 172 176 186 189 174 172 167 163 164 167 164 168 168 173 179 180 179 178 178 179 176 180 179 177 174 164 162 154 147 152 151 152 151 149 151 141 146 160 163 170 171 179 174 170 164 173 174 171 181 189 173 191 193 199 198 199 205
205 212 232 246 247 237 258 1 322 320 264 186 167 252 270 271 138 166 143 124 84 49 43 354 8 11 251 211 193 179 182 179 178 163 157 157 168 169 170 170 175 178 177 177 177 172 170 167 167 171 169 166 170 176 180 180 177 175 179 176 176 175 175 172 161 151 143 136 134 140 134 140 131 134 126 141 143 160 165 176 181 178 170 167 168 170 179 177 174 176 182 186 203 195 202 198 199
166 201 214 228 245 252 265 189 180 194 270 267 218 238 247 259 238 180 169 170 63 61 46 35 15 7 191 159 183 178 178 182 178 167 159 165 174 178 171 169 182 183 177 178 178 177 176 171 169 171 170 171 173 177 177 180 175 173 175 175 175 173 166 161 149 136 131 129 129 128 134 121 112 138 138 143 149 164 162 179 177 167 173 169 168 172 177 175 174 177 172 173 207 213 209 197 185
148 215 214 142 259 286 252 259 193 235 250 249 206 249 265 254 250 23 178 159 96 61 57 51 38 8 48 85 138 170 177 178 171 174 162 174 176 181 181 176 187 191 182 179 177 176 177 174 172 170 171 172 174 176 179 177 173 175 172 172 171 164 156 147 142 139 137 138 136 137 134 147 149 129 142 149 156 148 147 164 173 173 176 177 178 178 186 179 184 181 173 182 193 198 204 186 190
230 262 20 235 201 218 203 245 245 245 244 258 240 247 267 262 263 188 140 35 49 60 67 56 43 32 18 23 5 1 227 177 181 177 163 175 183 185 183 150 188 190 194 180 171 175 173 177 175 174 173 173 173 174 178 175 175 173 170 168 162 157 157 154 148 148 152 154 153 151 151 136 132 139 142 154 162 155 153 156 179 176 182 186 186 183 190 190 191 190 183 183 171 192 197 198 194
234 273 241 238 275 248 225 213 260 253 261 257 265 244 267 275 36 29 76 51 38 17 40 58 59 38 20 18 29 11 13 156 216 188 173 181 178 164 138 167 187 178 197 181 178 177 177 180 177 177 174 172 170 173 177 175 173 169 168 165 163 162 163 159 156 158 164 165 161 160 152 149 141 145 140 155 164 165 162 165 178 184 184 190 189 187 197 188 188 185 183 182 173 194 197 193 184
192 217 234 208 231 320 289 267 246 250 258 255 255 259 243 49 30 37 51 45 40 21 52 48 53 58 57 32 18 11 10 16 13 226 179 156 161 164 160 178 150 122 186 280 187 182 182 185 185 182 177 173 172 171 172 170 170 168 165 165 164 165 165 167 166 169 168 164 162 163 159 153 151 148 143 157 166 167 162 178 174 184 179 180 179 182 187 185 183 177 181 184 179 196 197 188 180
251 223 226 225 225 216 228 241 211 254 263 263 271 262 93 62 45 45 45 48 28 39 75 93 66 45 41 41 40 29 20 14 23 30 143 150 163 161 165 158 83 123 149 242 206 195 193 194 193 183 179 173 169 166 167 163 165 164 166 165 162 166 171 171 173 172 170 161 161 161 156 159 157 149 168 157 160 146 168 182 175 167 173 173 177 172 173 178 177 171 168 169 182 183 190 166 189